Weather History for PASL - February, 2013

Change the Weather History Date:

Friday, February 15, 2013

  Actual Average Record
Temperature  
Mean Temperature -16 °F -  
Max Temperature -2 °F 16 °F 44 °F (2006)
Min Temperature -29 °F 1 °F -29 °F (2013)
Degree Days  
Heating Degree Days 80    
Moisture  
Dew Point -19 °F    
Average Humidity 68    
Maximum Humidity 100    
Minimum Humidity 35    
Precipitation  
Precipitation 0.00 in - - ()
Sea Level Pressure  
Sea Level Pressure 30.08 in    
Wind  
Wind Speed 2 mph (SSW)    
Max Wind Speed 9 mph    
Max Gust Speed 18 mph    
Visibility 10 miles    
Events      
Averages and records for this station are not official NWS values.
T = Trace of Precipitation, MM = Missing Value Source: NWS Daily Summary

Daily Weather History Graph

Daily Weather History Graph

Search for Another Location

Airport or City:

Trip Planner

Search our weather history database for the weather conditions in past years. The results will help you decide how hot, cold, wet, or windy it might be!

Date:

Astronomy

Feb. 15, 2013 Rise Set
Actual Time 9:11 AM AKST 6:14 PM AKST
Civil Twilight 8:25 AM AKST 7:01 PM AKST
Nautical Twilight 7:33 AM AKST 7:52 PM AKST
Astronomical Twilight 6:43 AM AKST 8:43 PM AKST
Moon 9:58 AM AKST (2/15) 1:17 AM AKST (2/15)
Length of Visible Light 10h 36m
Length of Day
9h 03m
Waxing Crescent, 31% of the Moon is Illuminated
Feb 15
Waxing Crescent
Feb 17
First Quarter
Feb 25
Full
Mar 4
Last Quarter
Mar 11
New

Hourly Weather History & Observations

Time (AKST) Temp. Windchill Dew Point Humidity Pressure Visibility Wind Dir Wind Speed Gust Speed Precip Events Conditions
12:16 AM -5.8 °F -18.4 °F -13.0 °F 71% 29.87 in 10.0 mi West 5.8 mph 18.4 mph N/A   Clear
12:36 AM -5.8 °F -22.4 °F -13.0 °F 71% 29.88 in 10.0 mi WSW 9.2 mph - N/A   Clear
12:56 AM -5.8 °F - -14.8 °F 65% 29.90 in 10.0 mi Calm Calm - N/A   Clear
1:16 AM -7.6 °F - -14.8 °F 71% 29.91 in 10.0 mi Calm Calm - N/A   Clear
1:36 AM -9.4 °F - -14.8 °F 77% 29.92 in 10.0 mi Calm Calm - N/A   Clear
2:16 AM -5.8 °F -14.5 °F -14.8 °F 65% 29.95 in 10.0 mi NW 3.5 mph - N/A   Clear
2:36 AM -9.4 °F -20.9 °F -16.6 °F 71% 29.96 in 10.0 mi NNW 4.6 mph - N/A   Clear
3:16 AM -13.0 °F - -18.4 °F 77% 29.98 in 10.0 mi Calm Calm - N/A   Clear
3:36 AM -16.6 °F - -23.8 °F 70% 29.99 in 10.0 mi Calm Calm - N/A   Clear
3:56 AM -16.6 °F - -18.4 °F 92% 30.00 in 10.0 mi Calm Calm - N/A   Clear
4:16 AM -18.4 °F - -22.0 °F 84% 30.00 in 9.0 mi Calm Calm - N/A   Clear
4:56 AM -20.2 °F - -25.6 °F 76% 30.01 in 10.0 mi Calm Calm - N/A   Clear
5:16 AM -22.0 °F - -25.6 °F 83% 30.01 in 10.0 mi Calm Calm - N/A   Clear
5:36 AM -23.8 °F - - N/A% 30.02 in 10.0 mi Calm Calm - N/A   Clear
6:16 AM -23.8 °F - - N/A% 30.03 in 10.0 mi Calm Calm - N/A   Clear
6:36 AM -23.8 °F - - N/A% 30.03 in 9.0 mi Calm Calm - N/A   Clear
6:56 AM -25.6 °F - - N/A% 30.03 in 8.0 mi Calm Calm - N/A   Clear
7:36 AM -27.4 °F - - N/A% 30.05 in 8.0 mi Calm Calm - N/A   Clear
7:56 AM -27.4 °F - - N/A% 30.05 in 8.0 mi Calm Calm - N/A   Clear
8:16 AM -27.4 °F - - N/A% 30.06 in 10.0 mi Calm Calm - N/A   Clear
8:56 AM -29.2 °F - - N/A% 30.07 in 10.0 mi Calm Calm - N/A   Clear
9:16 AM -29.2 °F - - N/A% 30.07 in 10.0 mi Calm Calm - N/A   Clear
9:36 AM -29.2 °F - - N/A% 30.08 in 10.0 mi Calm Calm - N/A   Clear
9:56 AM -29.2 °F - - N/A% 30.09 in 10.0 mi Calm Calm - N/A   Clear
10:16 AM -27.4 °F - - N/A% 30.09 in 10.0 mi Calm Calm - N/A   Clear
10:36 AM -27.4 °F - - N/A% 30.10 in 10.0 mi Calm Calm - N/A   Clear
10:56 AM -25.6 °F - - N/A% 30.10 in 10.0 mi Calm Calm - N/A   Clear
11:36 AM -20.2 °F - -27.4 °F 69% 30.11 in 10.0 mi Calm Calm - N/A   Clear
11:56 AM -18.4 °F - -23.8 °F 76% 30.11 in 10.0 mi Calm Calm - N/A   Clear
12:16 PM -16.6 °F - -23.8 °F 70% 30.11 in 10.0 mi Calm Calm - N/A   Clear
12:36 PM -14.8 °F - -23.8 °F 64% 30.12 in 10.0 mi Calm Calm - N/A   Clear
12:56 PM -11.2 °F - -16.6 °F 77% 30.12 in 10.0 mi Calm Calm - N/A   Clear
1:36 PM -7.6 °F - -11.2 °F 84% 30.12 in 10.0 mi Calm Calm - N/A   Clear
1:56 PM -7.6 °F - -25.6 °F 41% 30.12 in 10.0 mi Calm Calm - N/A   Clear
2:16 PM -5.8 °F - -9.4 °F 84% 30.12 in 9.0 mi Calm Calm - N/A   Clear
2:36 PM -4.0 °F - -25.6 °F 35% 30.12 in 10.0 mi Calm Calm - N/A   Clear
2:56 PM -2.2 °F - -11.2 °F 66% 30.12 in 10.0 mi Calm Calm - N/A   Clear
3:16 PM -2.2 °F -10.4 °F -23.8 °F 35% 30.12 in 10.0 mi South 3.5 mph - N/A   Clear
3:36 PM -2.2 °F -10.4 °F -11.2 °F 66% 30.12 in 10.0 mi SSE 3.5 mph - N/A   Clear
4:16 PM -2.2 °F -10.4 °F -11.2 °F 66% 30.11 in 10.0 mi SSE 3.5 mph - N/A   Clear
4:36 PM -2.2 °F -10.4 °F -23.8 °F 35% 30.12 in 10.0 mi SSE 3.5 mph - N/A   Clear
4:56 PM -2.2 °F - -11.2 °F 66% 30.12 in 10.0 mi Calm Calm - N/A   Clear
5:16 PM -2.2 °F -10.4 °F -23.8 °F 35% 30.13 in 10.0 mi SE 3.5 mph - N/A   Clear
5:56 PM -5.8 °F - -27.4 °F 35% 30.13 in 10.0 mi Calm Calm - N/A   Clear
6:16 PM -7.6 °F - -16.6 °F 65% 30.13 in 10.0 mi Calm Calm - N/A   Clear
6:36 PM -11.2 °F - -27.4 °F 45% 30.13 in 10.0 mi Calm Calm - N/A   Clear
6:56 PM -13.0 °F - -25.6 °F 53% 30.13 in 10.0 mi Calm Calm - N/A   Clear
7:16 PM -14.8 °F - -20.2 °F 77% 30.13 in 10.0 mi Calm Calm - N/A   Clear
7:36 PM -14.8 °F - - N/A% 30.13 in 10.0 mi Calm Calm - N/A   Clear
7:56 PM -16.6 °F - -20.2 °F 84% 30.13 in 10.0 mi Calm Calm - N/A   Clear
8:16 PM -16.6 °F - - N/A% 30.12 in 10.0 mi Calm Calm - N/A   Mostly Cloudy
8:36 PM -14.8 °F - -23.8 °F 64% 30.13 in 10.0 mi Calm Calm - N/A   Overcast
8:56 PM -14.8 °F - -18.4 °F 84% 30.13 in 10.0 mi Calm Calm - N/A   Overcast
9:16 PM -14.8 °F - - N/A% 30.12 in 8.0 mi Calm Calm - N/A   Overcast
9:36 PM -13.0 °F - -16.6 °F 84% 30.12 in 10.0 mi Calm Calm - N/A   Overcast
10:16 PM -11.2 °F - -11.2 °F 100% 30.15 in 9.0 mi Calm Calm - N/A   Overcast
10:36 PM -11.2 °F - - N/A% 30.15 in 10.0 mi Calm Calm - N/A   Overcast
10:56 PM -11.2 °F - -11.2 °F 100% 30.16 in 10.0 mi Calm Calm - N/A   Overcast
11:16 PM -9.4 °F - - N/A% 30.17 in 10.0 mi Calm Calm - N/A   Overcast
11:36 PM -9.4 °F - - N/A% 30.16 in 9.0 mi Calm Calm - N/A   Overcast
11:56 PM -9.4 °F - - N/A% 30.16 in 7.0 mi Calm Calm - N/A   Overcast